Location: Cincinnati Observatory Center
(39.1389°N, 84.4225°W)
Time: 03:24:38
(UTC-04:00)

Amateur Radio Satellites - All Passes

Search period start: 02 July 2016 02:54
Search period end: 03 July 2016 02:54
Location: Cincinnati Observatory Center, 39.1389°N, 84.4225°W

Satellite Date Start Highest point End Downlink Frequencies (MHz)
Time Altitude Azimuth
BEESAT 3 02 Jul 03:02:58 03:06:45 46° 305° (NW) 03:10:34 437.485
TISAT 1 02 Jul 03:17:27 03:19:27 13° 268° (W) 03:21:27 437.305
PCSat 02 Jul 03:21:57 03:26:47 32° 307° (NW) 03:31:39 145.827
Cosmos 2504 02 Jul 03:23:40 03:31:05 32° 277° (W) 03:38:11 435.465 / 435.565
Oscar 19 02 Jul 03:30:01 03:35:05 63° 287° (WNW) 03:40:09 437.125/150
O/OREOS (USA 219) 02 Jul 03:31:37 03:35:55 44° 295° (WNW) 03:40:13 437.305
AO-7 02 Jul 03:36:47 03:39:32 12° 88° (E) 03:42:16 29.400- 29.500
BEESAT 2 02 Jul 03:48:57 03:52:24 29° 309° (NW) 03:55:55 435.950
SWISSCUBE 02 Jul 03:55:12 03:59:23 30° 263° (W) 04:03:37 437.505
Cosmos 2491 02 Jul 03:59:41 04:02:56 12° 301° (WNW) 04:06:11 435.465 / 435.565
ITAMSAT 1 02 Jul 04:01:05 04:05:56 37° 98° (E) 04:10:43 435.822/435.867
KKS-1 02 Jul 04:06:15 04:10:18 37° 71° (ENE) 04:14:23 437.445
Gurwin Techsat 1B 02 Jul 04:17:45 04:22:56 53° 288° (WNW) 04:28:06 435.225
BEESAT 02 Jul 04:21:04 04:24:24 19° 267° (W) 04:27:46 436.000
AIST 1 02 Jul 04:23:16 04:27:18 40° 79° (ENE) 04:31:19
MOZHAYETS 4 02 Jul 04:24:06 04:28:36 52° 74° (ENE) 04:33:08
ITUPSAT 1 02 Jul 04:24:52 04:28:05 18° 267° (W) 04:31:19 437.325
STARS 02 Jul 04:28:00 04:31:51 31° 70° (ENE) 04:35:44 437.465
GONETS M04 02 Jul 04:49:14 04:55:46 23° 66° (ENE) 05:02:16
PHONESAT 2.4 02 Jul 04:59:43 05:01:18 13° 147° (SSE) 05:02:54 2401.200-2431.200
AIST 2 02 Jul 05:02:36 05:06:43 90° 301° (WNW) 05:10:52 435.215
HORYU 2 02 Jul 05:24:57 05:27:10 13° 92° (E) 05:29:22 437.375
AO-7 02 Jul 05:25:12 05:33:36 72° 106° (ESE) 05:41:55 29.400- 29.500
AO-85 02 Jul 05:35:14 05:38:52 23° 46° (NE) 05:42:16 145.980
ITAMSAT 1 02 Jul 05:40:55 05:45:11 26° 294° (WNW) 05:49:27 435.822/435.867
KKS-1 02 Jul 05:43:53 05:46:58 19° 266° (W) 05:50:05 437.445
Cosmos 2499 02 Jul 05:54:33 06:02:36 39° 73° (ENE) 06:10:07 435.465 / 435.565
AIST 1 02 Jul 06:02:11 06:04:29 14° 274° (W) 06:06:47
CUBESAT XI-V 02 Jul 06:02:11 06:06:51 68° 74° (ENE) 06:11:31 437.345
MOZHAYETS 4 02 Jul 06:03:34 06:06:04 14° 269° (W) 06:08:34
STARS 02 Jul 06:04:55 06:08:14 21° 265° (W) 06:11:34 437.465
CUSAT 1 02 Jul 06:26:16 06:30:00 15° 86° (E) 06:33:27 437.405
PHONESAT 2.4 02 Jul 06:34:29 06:37:31 60° 161° (SSE) 06:40:32 2401.200-2431.200
Cubesat XI-IV 02 Jul 06:38:58 06:41:12 13° 90° (E) 06:43:26 437.490
AIST 2 02 Jul 06:44:37 06:45:49 11° 319° (NW) 06:47:02 435.215
GONETS M04 02 Jul 06:44:44 06:53:26 75° 266° (W) 07:02:10
HORYU 2 02 Jul 06:59:38 07:04:01 53° 287° (WNW) 07:08:23 437.375
NOAA 18 02 Jul 07:03:56 07:08:26 25° 95° (E) 07:12:56 137.9125
CUTE-I 02 Jul 07:10:11 07:14:40 26° 95° (E) 07:19:07 437.470
AO-85 02 Jul 07:15:24 07:19:26 35° 246° (WSW) 07:23:09 145.980
BRITE-PL 02 Jul 07:18:29 07:22:26 41° 99° (E) 07:26:29 437.365/2234.400
AO-7 02 Jul 07:19:04 07:25:36 26° 304° (NW) 07:32:08 29.400- 29.500
STRAND 1 02 Jul 07:21:41 07:26:15 33° 68° (ENE) 07:30:50 437.568
DANDE 02 Jul 07:22:48 07:29:09 25° 87° (E) 07:35:03 436.750
NOAA 15 02 Jul 07:24:48 07:29:54 50° 100° (E) 07:34:57 137.62
GOMX 1 02 Jul 07:31:45 07:35:21 26° 96° (E) 07:39:05 467.674
LilacSat-2 02 Jul 07:41:25 07:45:14 53° 100° (E) 07:49:03 437.200
CUBESAT XI-V 02 Jul 07:43:13 07:44:39 11° 270° (W) 07:46:05 437.345
Cosmos 2499 02 Jul 07:47:43 07:55:43 43° 273° (W) 08:03:14 435.465 / 435.565
CUSAT 1 02 Jul 08:03:55 08:11:36 90° 100° (E) 08:17:52 437.405
PHONESAT 2.4 02 Jul 08:11:05 08:14:08 65° 357° (N) 08:17:11 2401.200-2431.200
DOVE 4 02 Jul 08:11:22 08:15:23 32° 97° (E) 08:19:35 437.250
ISS 02 Jul 08:14:40 08:17:56 87° 140° (SE) 08:21:12 145.825
Cubesat XI-IV 02 Jul 08:16:25 08:21:49 76° 285° (WNW) 08:27:10 437.490
HO-68 02 Jul 08:21:01 08:25:29 17° 91° (E) 08:29:55 435.675
CANX-2 02 Jul 08:25:09 08:26:29 11° 90° (E) 08:27:48 2200.000
CINEMA 3 02 Jul 08:38:03 08:41:24 19° 94° (E) 08:44:51 145.822/145.860
SEEDS 02 Jul 08:41:42 08:42:06 10° 90° (E) 08:42:30 437.485
CUTE 1.7 + AOD 2 02 Jul 08:43:08 08:45:50 16° 92° (E) 08:48:30 437.475
NOAA 18 02 Jul 08:44:00 08:49:13 42° 291° (WNW) 08:54:24 137.9125
GONETS M04 02 Jul 08:45:28 08:48:38 12° 285° (WNW) 08:51:49
CUTE-I 02 Jul 08:49:50 08:54:45 37° 291° (WNW) 08:59:39 437.470
PRISM 02 Jul 08:53:27 08:57:18 38° 72° (ENE) 09:01:09 437.425
BRITE-PL 02 Jul 08:58:14 09:00:39 15° 294° (WNW) 09:03:03 437.365/2234.400
STRAND 1 02 Jul 09:01:02 09:05:24 28° 264° (W) 09:09:48 437.568
DANDE 02 Jul 09:03:07 09:11:31 70° 280° (W) 09:19:00 436.750
NOAA 15 02 Jul 09:05:32 09:09:16 20° 296° (WNW) 09:13:01 137.62
AAUSAT CUBESAT 2 02 Jul 09:08:08 09:09:31 11° 91° (E) 09:10:53 437.432
GOMX 1 02 Jul 09:09:51 09:13:23 25° 290° (WNW) 09:17:03 467.674
LilacSat-2 02 Jul 09:17:57 09:19:03 11° 295° (WNW) 09:20:10 437.200
CUBEBUG 2 02 Jul 09:43:51 09:47:57 29° 96° (E) 09:52:04 437.445
COMPASS 1 02 Jul 09:44:11 09:48:09 39° 98° (E) 09:52:02 437.405
PHONESAT 2.4 02 Jul 09:47:45 09:50:49 81° 192° (SSW) 09:53:53 2401.200-2431.200
DOVE 4 02 Jul 09:49:29 09:52:56 23° 291° (WNW) 09:56:31 437.250
CUSAT 1 02 Jul 09:50:00 09:54:01 16° 291° (WNW) 09:57:42 437.405
ISS 02 Jul 09:52:31 09:54:45 17° 339° (NNW) 09:56:58 145.825
ZACube-1 02 Jul 09:53:03 09:55:54 16° 92° (E) 09:58:45 437.345
AUBIESAT-1 02 Jul 09:54:47 09:56:40 13° 98° (E) 09:58:35 437.475
Oscar 11 02 Jul 09:54:53 09:57:40 17° 93° (E) 10:00:27 145.826/435.025
CANX-2 02 Jul 09:58:28 10:02:41 57° 285° (WNW) 10:06:51 2200.000
ANTELSAT 02 Jul 10:01:58 10:04:26 15° 64° (ENE) 10:06:55 437.575/2403.000
HO-68 02 Jul 10:06:40 10:13:54 81° 288° (WNW) 10:21:06 435.675
FUNcube-1 02 Jul 10:07:43 10:11:16 22° 94° (E) 10:14:48 145.935
SEEDS 02 Jul 10:14:00 10:18:11 61° 285° (WNW) 10:22:19 437.485
CINEMA 3 02 Jul 10:14:17 10:18:38 41° 288° (WNW) 10:23:10 145.822/145.860
CUTE 1.7 + AOD 2 02 Jul 10:17:50 10:21:49 39° 288° (WNW) 10:25:46 437.475
DELFI C3 02 Jul 10:20:02 10:21:45 12° 91° (E) 10:23:27 145.870
UWE-3 02 Jul 10:22:10 10:26:42 51° 99° (E) 10:31:15 435.000/436.395/437.385
PCSat 02 Jul 10:27:27 10:31:52 24° 50° (NE) 10:36:14 145.827
PRISM 02 Jul 10:30:11 10:32:44 16° 266° (W) 10:35:18 437.425
BEESAT 2 02 Jul 10:31:08 10:33:00 13° 43° (NE) 10:34:51 435.950
M-CUBED/EXP-1 PRIME 02 Jul 10:35:57 10:39:52 46° 105° (ESE) 10:44:04 437.505
AAUSAT CUBESAT 2 02 Jul 10:41:15 10:45:18 52° 286° (WNW) 10:49:19 437.432
TIGRISAT 02 Jul 10:50:19 10:54:27 46° 73° (ENE) 10:58:41 435.000
DANDE 02 Jul 10:51:25 10:55:17 14° 296° (WNW) 10:58:58 436.750
UNISAT 6 02 Jul 10:56:46 11:01:00 59° 74° (ENE) 11:05:22 437.425
CUBEBUG 2 02 Jul 11:20:32 11:24:27 27° 291° (WNW) 11:28:25 437.445
COMPASS 1 02 Jul 11:20:46 11:23:22 16° 294° (WNW) 11:25:56 437.405
BEESAT 3 02 Jul 11:20:59 11:24:56 66° 57° (ENE) 11:28:51 437.485
PHONESAT 2.4 02 Jul 11:24:49 11:27:09 20° 210° (SSW) 11:29:29 2401.200-2431.200
AUBIESAT-1 02 Jul 11:27:19 11:31:17 54° 291° (WNW) 11:35:32 437.475
ZACube-1 02 Jul 11:28:00 11:32:23 46° 287° (WNW) 11:36:45 437.345
Oscar 11 02 Jul 11:29:53 11:33:57 40° 288° (WNW) 11:38:00 145.826/435.025
RS-15 02 Jul 11:30:18 11:41:02 52° 110° (ESE) 11:52:21 29.354- 29.394
ANTELSAT 02 Jul 11:36:31 11:40:42 49° 261° (W) 11:45:00 437.575/2403.000
FUNcube-1 02 Jul 11:43:25 11:47:32 34° 289° (WNW) 11:51:39 145.935
NANOSAT C BR1 02 Jul 11:51:32 11:55:20 35° 71° (ENE) 11:59:09 145.865
YUBILEINY 02 Jul 11:52:39 11:58:16 19° 79° (ENE) 12:03:54 435.215
DELFI C3 02 Jul 11:53:02 11:56:50 44° 287° (WNW) 12:00:36 145.870
HO-68 02 Jul 11:56:38 12:00:30 16° 306° (NW) 12:04:22 435.675
QB50P1 02 Jul 11:56:50 12:00:48 43° 73° (ENE) 12:04:47 145.935-145.965
UWE-3 02 Jul 11:59:55 12:02:44 16° 295° (WNW) 12:05:33 435.000/436.395/437.385
POPSAT HIP 1 02 Jul 12:00:26 12:04:26 46° 73° (ENE) 12:08:28 437.405
O/OREOS (USA 219) 02 Jul 12:03:39 12:07:26 26° 61° (ENE) 12:11:14 437.305
HUMSAT D 02 Jul 12:04:10 12:08:31 79° 283° (WNW) 12:12:47 437.325/437.525
BEESAT 2 02 Jul 12:07:18 12:11:17 69° 240° (WSW) 12:15:14 435.950
Cosmos 2491 02 Jul 12:07:18 12:15:53 58° 79° (ENE) 12:24:26 435.465 / 435.565
DUCHIFAT 1 02 Jul 12:09:42 12:13:45 54° 74° (ENE) 12:17:50 145.980
PCSat 02 Jul 12:10:17 12:15:30 49° 247° (WSW) 12:20:41 145.827
VELOX 1 02 Jul 12:11:03 12:12:08 11° 91° (E) 12:13:14 145.980
M-CUBED/EXP-1 PRIME 02 Jul 12:11:41 12:14:07 16° 298° (WNW) 12:16:39 437.505
QB50P2 02 Jul 12:13:40 12:17:51 73° 76° (ENE) 12:22:04 145.880/145.840
POLYITAN 1 02 Jul 12:16:18 12:20:29 75° 75° (ENE) 12:24:41 437.675
TIGRISAT 02 Jul 12:29:02 12:31:25 14° 269° (W) 12:33:48 435.000
UKube-1 02 Jul 12:30:05 12:30:16 10° 91° (E) 12:30:27 .
UNISAT 6 02 Jul 12:36:46 12:38:07 11° 270° (W) 12:39:29 437.425
BUGSAT 1 02 Jul 12:47:55 12:51:53 66° 75° (ENE) 12:55:52 437.445
AISAT 02 Jul 12:49:56 12:53:54 33° 97° (E) 12:57:52 437.250
JAS-2 02 Jul 12:53:04 13:00:17 52° 71° (ENE) 13:06:49 435.910
DX 1 02 Jul 12:54:58 12:58:39 26° 96° (E) 13:02:19 434.975-435.025
50 SAT 02 Jul 13:00:05 13:03:37 44° 99° (E) 13:07:06 437.505
ESTCUBE 1 02 Jul 13:03:09 13:07:40 75° 103° (ESE) 13:12:08 437.505/2401.250
ISS 02 Jul 13:07:49 13:09:51 15° 20° (NNE) 13:11:54 145.825
Oscar 19 02 Jul 13:08:13 13:11:53 20° 64° (ENE) 13:15:32 437.125/150
AIST 2 02 Jul 13:25:03 13:28:59 40° 54° (NE) 13:32:55 435.215
CUBEBUG 1 02 Jul 13:25:05 13:29:26 89° 102° (ESE) 13:33:46 437.445
NANOSAT C BR1 02 Jul 13:28:22 13:31:10 17° 267° (W) 13:33:59 145.865
QB50P1 02 Jul 13:34:28 13:36:46 14° 268° (W) 13:39:06 145.935-145.965
POPSAT HIP 1 02 Jul 13:38:25 13:40:27 13° 268° (W) 13:42:30 437.405
RS-15 02 Jul 13:42:32 13:53:34 50° 313° (NW) 14:05:14 29.354- 29.394
O/OREOS (USA 219) 02 Jul 13:42:57 13:46:46 27° 257° (WSW) 13:50:34 437.305
VELOX 1 02 Jul 13:44:39 13:48:59 62° 286° (WNW) 13:53:19 145.980
YUBILEINY 02 Jul 13:45:11 13:53:54 81° 277° (W) 14:02:44 435.215
DUCHIFAT 1 02 Jul 13:48:27 13:49:46 11° 269° (W) 13:51:05 145.980
SPROUT 02 Jul 13:55:28 13:59:47 77° 102° (ESE) 14:04:04 437.525
Gurwin Techsat 1B 02 Jul 13:58:54 14:03:16 27° 66° (ENE) 14:07:39 435.225
UKube-1 02 Jul 14:02:26 14:06:42 64° 286° (WNW) 14:10:57 .
Cosmos 2491 02 Jul 14:05:04 14:12:06 29° 277° (W) 14:19:09 435.465 / 435.565
Cosmos 2504 02 Jul 14:05:41 14:13:22 46° 88° (E) 14:21:31 435.465 / 435.565
SO-50 02 Jul 14:19:20 14:20:46 11° 106° (ESE) 14:22:12 436.795
AISAT 02 Jul 14:26:51 14:30:11 21° 293° (WNW) 14:33:31 437.250
DX 1 02 Jul 14:31:10 14:34:44 25° 292° (WNW) 14:38:17 434.975-435.025
AO-7 02 Jul 14:33:51 14:39:18 20° 52° (NE) 14:44:46 29.400- 29.500
50 SAT 02 Jul 14:35:36 14:36:52 11° 295° (WNW) 14:38:06 437.505
JAS-2 02 Jul 14:38:59 14:45:23 30° 264° (W) 14:51:21 435.910
ESTCUBE 1 02 Jul 14:42:54 14:43:48 11° 298° (WNW) 14:44:44 437.505/2401.250
ISS 02 Jul 14:43:29 14:46:45 76° 36° (NE) 14:50:00 145.825
BEESAT 02 Jul 14:45:21 14:47:01 12° 90° (E) 14:48:39 436.000
Oscar 19 02 Jul 14:45:52 14:50:50 48° 261° (W) 14:55:48 437.125/150
ITUPSAT 1 02 Jul 14:48:58 14:51:03 13° 91° (E) 14:53:07 437.325
TISAT 1 02 Jul 14:59:45 15:03:58 82° 284° (WNW) 15:08:12 437.305
AIST 2 02 Jul 15:04:23 15:07:09 17° 250° (WSW) 15:09:56 435.215
ITAMSAT 1 02 Jul 15:17:47 15:22:49 51° 72° (ENE) 15:27:54 435.822/435.867
Gurwin Techsat 1B 02 Jul 15:38:08 15:43:01 37° 262° (W) 15:47:56 435.225
YUBILEINY 02 Jul 15:47:21 15:52:11 16° 299° (WNW) 15:57:04 435.215
SWISSCUBE 02 Jul 15:55:40 16:00:28 75° 102° (ESE) 16:05:14 437.505
SO-50 02 Jul 15:55:40 16:00:34 81° 301° (WNW) 16:05:28 436.795
JUGNU 02 Jul 15:58:49 16:00:30 11° 179° (S) 16:02:10 437.505
Cosmos 2504 02 Jul 15:59:21 16:06:50 37° 288° (WNW) 16:14:48 435.465 / 435.565
RS-15 02 Jul 16:01:36 16:10:06 21° 345° (NNW) 16:18:51 29.354- 29.394
BEESAT 02 Jul 16:20:28 16:25:14 68° 286° (WNW) 16:29:58 436.000
MOZHAYETS 4 02 Jul 16:21:55 16:24:13 13° 91° (E) 16:26:30
ISS 02 Jul 16:22:16 16:22:44 10° 233° (SW) 16:23:13 145.825
AO-7 02 Jul 16:22:33 16:30:54 86° 71° (ENE) 16:39:19 29.400- 29.500
HORYU 2 02 Jul 16:22:59 16:24:35 12° 62° (ENE) 16:26:10 437.375
ITUPSAT 1 02 Jul 16:24:31 16:29:17 63° 286° (WNW) 16:34:00 437.325
AIST 1 02 Jul 16:51:44 16:55:17 26° 90° (E) 16:58:50
ITAMSAT 1 02 Jul 16:59:02 17:02:33 18° 267° (W) 17:06:07 435.822/435.867
SRMSAT 02 Jul 17:22:44 17:23:38 10° 174° (S) 17:24:33 437.500
KKS-1 02 Jul 17:34:08 17:38:37 89° 97° (E) 17:43:05 437.445
SWISSCUBE 02 Jul 17:35:48 17:37:37 12° 299° (WNW) 17:39:24 437.505
SO-50 02 Jul 17:39:26 17:41:49 13° 320° (NW) 17:44:12 436.795
GONETS M04 02 Jul 17:49:45 17:56:32 26° 82° (E) 18:03:17
STARS 02 Jul 17:53:58 17:58:23 73° 102° (ESE) 18:02:48 437.465
HORYU 2 02 Jul 17:56:09 18:00:32 67° 258° (WSW) 18:04:59 437.375
MOZHAYETS 4 02 Jul 17:57:10 18:01:43 55° 286° (WNW) 18:06:12
Cubesat XI-IV 02 Jul 17:59:11 18:03:02 20° 64° (ENE) 18:06:53 437.490
CUBESAT XI-V 02 Jul 18:00:57 18:04:05 18° 93° (E) 18:07:12 437.345
AO-7 02 Jul 18:19:11 18:24:32 18° 268° (W) 18:29:57 29.400- 29.500
RS-15 02 Jul 18:19:35 18:28:53 24° 22° (NNE) 18:38:14 29.354- 29.394
LilacSat-2 02 Jul 18:22:53 18:25:50 22° 69° (ENE) 18:28:49 437.200
BRITE-PL 02 Jul 18:27:54 18:32:36 46° 74° (ENE) 18:36:57 437.365/2234.400
NOAA 18 02 Jul 18:28:55 18:34:02 42° 69° (ENE) 18:39:12 137.9125
Cosmos 2499 02 Jul 18:29:15 18:36:27 33° 84° (E) 18:43:55 435.465 / 435.565
AIST 1 02 Jul 18:29:21 18:32:48 23° 285° (WNW) 18:36:16
CUTE-I 02 Jul 18:30:44 18:35:40 39° 69° (ENE) 18:40:37 437.470
GOMX 1 02 Jul 18:39:18 18:42:56 25° 70° (ENE) 18:46:26 467.674
CUSAT 1 02 Jul 18:42:34 18:45:31 34° 75° (ENE) 18:48:02 437.405
NOAA 15 02 Jul 18:43:38 18:48:53 72° 74° (ENE) 18:54:10 137.62
HO-68 02 Jul 18:51:18 18:54:07 13° 52° (NE) 18:56:57 435.675
SRMSAT 02 Jul 19:10:43 19:11:52 11° 185° (S) 19:13:00 437.500
DOVE 4 02 Jul 19:16:31 19:20:04 27° 70° (ENE) 19:23:34 437.250
STARS 02 Jul 19:33:08 19:34:07 11° 298° (WNW) 19:35:06 437.465
STRAND 1 02 Jul 19:35:22 19:37:08 12° 90° (E) 19:38:52 437.568
CUTE 1.7 + AOD 2 02 Jul 19:36:28 19:37:40 11° 63° (ENE) 19:38:50 437.475
CUBESAT XI-V 02 Jul 19:37:18 19:41:38 41° 288° (WNW) 19:45:56 437.345
Cubesat XI-IV 02 Jul 19:37:29 19:42:41 51° 260° (W) 19:47:56 437.490
CINEMA 3 02 Jul 19:40:14 19:42:17 13° 65° (ENE) 19:44:20 145.822/145.860
GONETS M04 02 Jul 19:44:02 19:52:37 63° 281° (W) 20:01:15
DANDE 02 Jul 19:47:23 19:51:41 87° 262° (W) 19:54:56 436.750
AO-85 02 Jul 19:50:23 19:52:14 12° 106° (ESE) 19:54:04 145.980
LilacSat-2 02 Jul 19:57:00 20:00:02 23° 265° (W) 20:03:06 437.200
BRITE-PL 02 Jul 20:08:04 20:11:13 17° 266° (W) 20:14:14 437.365/2234.400
NOAA 18 02 Jul 20:10:28 20:14:49 24° 265° (W) 20:19:13 137.9125
CUTE-I 02 Jul 20:11:26 20:15:47 25° 265° (W) 20:20:10 437.470
GOMX 1 02 Jul 20:17:09 20:20:57 26° 263° (W) 20:24:37 467.674
Cosmos 2499 02 Jul 20:20:55 20:29:05 54° 283° (WNW) 20:37:44 435.465 / 435.565
NOAA 15 02 Jul 20:26:48 20:29:09 13° 270° (W) 20:31:30 137.62
RS-15 02 Jul 20:32:37 20:44:49 60° 51° (NE) 20:56:52 29.354- 29.394
HO-68 02 Jul 20:33:26 20:40:31 68° 71° (ENE) 20:47:39 435.675
COMPASS 1 02 Jul 20:34:06 20:37:29 24° 69° (ENE) 20:40:53 437.405
CUBEBUG 2 02 Jul 20:41:44 20:44:47 20° 67° (ENE) 20:47:53 437.445
CANX-2 02 Jul 20:49:32 20:53:49 85° 77° (ENE) 20:58:08 2200.000
ZACube-1 02 Jul 20:49:49 20:50:51 11° 62° (ENE) 20:51:52 437.345
Oscar 11 02 Jul 20:49:54 20:51:35 12° 63° (ENE) 20:53:16 145.826/435.025
DOVE 4 02 Jul 20:54:25 20:57:46 22° 265° (W) 21:01:04 437.250
FUNcube-1 02 Jul 21:03:18 21:05:39 15° 65° (ENE) 21:08:01 145.935
SEEDS 02 Jul 21:04:01 21:08:16 77° 76° (ENE) 21:12:32 437.485
CUTE 1.7 + AOD 2 02 Jul 21:08:39 21:12:55 66° 260° (W) 21:17:12 437.475
STRAND 1 02 Jul 21:11:40 21:16:50 76° 285° (WNW) 21:21:56 437.568
CINEMA 3 02 Jul 21:15:01 21:19:00 47° 261° (W) 21:23:03 145.822/145.860
UWE-3 02 Jul 21:18:19 21:22:06 34° 71° (ENE) 21:26:01 435.000/436.395/437.385
M-CUBED/EXP-1 PRIME 02 Jul 21:22:27 21:25:31 41° 68° (ENE) 21:28:39 437.505
AO-85 02 Jul 21:26:36 21:32:03 90° 45° (NE) 21:37:20 145.980
AAUSAT CUBESAT 2 02 Jul 21:29:44 21:33:55 84° 77° (ENE) 21:38:09 437.432
GONETS M04 02 Jul 21:49:29 21:51:26 11° 303° (WNW) 21:53:23
COMPASS 1 02 Jul 22:09:22 22:12:55 26° 264° (W) 22:16:30 437.405
PRISM 02 Jul 22:10:54 22:14:58 74° 102° (ESE) 22:19:02 437.425
AUBIESAT-1 02 Jul 22:13:17 22:16:26 43° 256° (WSW) 22:19:39 437.475
CUBEBUG 2 02 Jul 22:17:24 22:21:10 32° 263° (W) 22:25:03 437.445
ZACube-1 02 Jul 22:22:18 22:26:30 67° 259° (W) 22:30:50 437.345
Oscar 11 02 Jul 22:22:52 22:27:10 61° 260° (W) 22:31:29 145.826/435.025
HO-68 02 Jul 22:23:37 22:28:45 21° 267° (W) 22:33:57 435.675
DELFI C3 02 Jul 22:37:09 22:41:11 86° 77° (ENE) 22:45:14 145.870
FUNcube-1 02 Jul 22:37:22 22:41:27 47° 261° (W) 22:45:39 145.935
TIGRISAT 02 Jul 22:44:57 22:46:31 11° 90° (E) 22:48:05 435.000
RS-15 02 Jul 22:45:43 22:56:54 43° 253° (WSW) 23:07:58 29.354- 29.394
SO-50 02 Jul 22:50:48 22:51:39 10° 36° (NE) 22:52:30 436.795
UNISAT 6 02 Jul 22:50:48 22:53:24 15° 91° (E) 22:56:01 437.425
HUMSAT D 02 Jul 22:53:56 22:58:03 59° 74° (ENE) 23:02:15 437.325/437.525
UWE-3 02 Jul 22:55:41 22:58:40 19° 267° (W) 23:01:43 435.000/436.395/437.385
AO-85 02 Jul 23:09:54 23:13:12 16° 318° (NW) 23:16:26 145.980
Cosmos 2491 02 Jul 23:17:57 23:20:07 11° 74° (ENE) 23:22:17 435.465 / 435.565
ANTELSAT 02 Jul 23:28:59 23:33:22 37° 98° (E) 23:37:42 437.575/2403.000
50 SAT 02 Jul 23:37:34 23:40:08 18° 68° (ENE) 23:42:42 437.505
AISAT 02 Jul 23:46:28 23:50:06 26° 69° (ENE) 23:53:44 437.250
DX 1 02 Jul 23:49:48 23:53:04 21° 67° (ENE) 23:56:19 434.975-435.025
YUBILEINY 02 Jul 23:56:53 00:05:24 49° 76° (ENE) 00:13:50 435.215
Cosmos 2504 03 Jul 00:01:13 00:06:21 16° 61° (ENE) 00:11:20 435.465 / 435.565
ESTCUBE 1 03 Jul 00:01:15 00:05:42 59° 74° (ENE) 00:10:10 437.505/2401.250
QB50P2 03 Jul 00:01:25 00:03:25 13° 92° (E) 00:05:26 145.880/145.840
POLYITAN 1 03 Jul 00:03:58 00:06:04 13° 92° (E) 00:08:11 437.675
TIGRISAT 03 Jul 00:18:57 00:23:36 67° 285° (WNW) 00:28:16 435.000
CUBEBUG 1 03 Jul 00:19:38 00:23:55 63° 75° (ENE) 00:28:12 437.445
UNISAT 6 03 Jul 00:25:50 00:30:24 53° 287° (WNW) 00:34:58 437.425
SO-50 03 Jul 00:28:27 00:33:05 65° 57° (ENE) 00:37:33 436.795
HUMSAT D 03 Jul 00:33:19 00:34:03 10° 270° (W) 00:34:49 437.325/437.525
BUGSAT 1 03 Jul 00:33:41 00:34:10 10° 91° (E) 00:34:39 437.445
VELOX 1 03 Jul 00:40:26 00:44:50 83° 257° (WSW) 00:49:16 145.980
SPROUT 03 Jul 00:47:45 00:51:49 49° 74° (ENE) 00:55:57 437.525
UKube-1 03 Jul 00:55:26 00:59:44 90° 234° (SW) 01:04:05 .
ANTELSAT 03 Jul 01:06:15 01:09:48 22° 293° (WNW) 01:13:22 437.575/2403.000
Cosmos 2491 03 Jul 01:06:32 01:15:13 70° 93° (E) 01:23:53 435.465 / 435.565
PCSat 03 Jul 01:08:24 01:12:44 25° 107° (ESE) 01:17:05 145.827
50 SAT 03 Jul 01:10:23 01:13:36 27° 263° (W) 01:16:50 437.505
NANOSAT C BR1 03 Jul 01:12:02 01:16:18 79° 101° (E) 01:20:34 145.865
BEESAT 3 03 Jul 01:12:16 01:14:22 14° 109° (ESE) 01:16:28 437.485
QB50P1 03 Jul 01:17:54 01:22:11 84° 284° (WNW) 01:26:28 145.935-145.965
POPSAT HIP 1 03 Jul 01:21:36 01:25:53 78° 284° (WNW) 01:30:09 437.405
AISAT 03 Jul 01:22:47 01:26:29 26° 264° (W) 01:30:11 437.250
DX 1 03 Jul 01:25:08 01:29:02 32° 262° (W) 01:32:57 434.975-435.025
DUCHIFAT 1 03 Jul 01:30:15 01:34:28 68° 285° (WNW) 01:38:42 145.980
QB50P2 03 Jul 01:35:21 01:39:29 49° 287° (WNW) 01:43:37 145.880/145.840
POLYITAN 1 03 Jul 01:37:59 01:42:07 48° 287° (WNW) 01:46:15 437.675
ESTCUBE 1 03 Jul 01:41:03 01:42:51 12° 269° (W) 01:44:40 437.505/2401.250
JAS-2 03 Jul 01:49:33 01:54:38 40° 98° (E) 01:59:28 435.910
TISAT 1 03 Jul 01:50:01 01:54:06 62° 75° (ENE) 01:58:14 437.305
BEESAT 03 Jul 01:50:48 01:53:03 13° 62° (ENE) 01:55:18 436.000
Cosmos 2504 03 Jul 01:52:21 02:01:15 81° 83° (E) 02:09:38 435.465 / 435.565
YUBILEINY 03 Jul 01:54:09 02:01:52 36° 275° (W) 02:09:35 435.215
ITUPSAT 1 03 Jul 01:54:47 01:57:21 15° 63° (ENE) 01:59:55 437.325
BEESAT 2 03 Jul 01:58:35 02:01:51 25° 113° (ESE) 02:05:10 435.950
CUBEBUG 1 03 Jul 01:59:46 02:00:35 10° 270° (W) 02:01:23 437.445
BUGSAT 1 03 Jul 02:05:48 02:09:52 59° 285° (WNW) 02:13:58 437.445
SO-50 03 Jul 02:10:59 02:12:56 13° 253° (WSW) 02:14:52 436.795
O/OREOS (USA 219) 03 Jul 02:14:36 02:18:42 36° 105° (ESE) 02:22:48 437.305
Gurwin Techsat 1B 03 Jul 02:18:52 02:19:38 10° 89° (E) 02:20:24 435.225
SPROUT 03 Jul 02:26:04 02:28:03 13° 269° (W) 02:30:02 437.525
